Tracking 19245 objects as of 19-Aug-2018
HD Live streaming from Space Station
objects crossing your sky now

CARTOSAT-1

Track CARTOSAT-1 now!
10-day predictions
CARTOSAT-1 is classified as:


NORAD ID: 28649
Int'l Code: 2005-017A
Perigee: 623.2 km
Apogee: 627.8 km
Inclination: 97.8 °
Period: 97.1 minutes
Semi major axis: 6996 km
RCS: 4.7551 m2 (large)
Launch date: May 5, 2005
Source: India (IND)
Launch site: SRIHARIKOTA (SRI)

Remote sensing and mapping, land use, forest cover, river flow assessments.
aabbcc
Your satellite tracking list
Your tracking list is empty




NASA's NSSDC Master Catalog

Two Line Element Set (TLE):
1 28649U 05017A   18230.72810533  .00000082  00000-0  16281-4 0  9997
2 28649  97.8197 302.2841 0003337  88.7411 271.4188 14.83475219719368
Source of the keplerian elements: AFSPC